Tracking 19575 objects as of 18-Feb-2019
HD Live streaming from Space Station
objects crossing your sky now

METEOR 1-11

Track METEOR 1-11 now!
10-day predictions
METEOR 1-11 is classified as:


NORAD ID: 5917
Int'l Code: 1972-022A
Perigee: 848.2 km
Apogee: 894.0 km
Inclination: 81.2 °
Period: 102.2 minutes
Semi major axis: 7242 km
RCS: 4.5529 m2 (large)
Launch date: March 30, 1972
Source: Commonwealth of Independent States (former USSR) (CIS)
Launch site: PLESETSK MISSILE AND SPACE COMPLEX (PKMTR)
aabbcc
Your satellite tracking list
Your tracking list is empty




NASA's NSSDC Master Catalog

Two Line Element Set (TLE):
1  5917U 72022A   19048.93215867 +.00000186 +00000-0 +10062-3 0  9995
2  5917 081.2224 011.1645 0031578 325.1535 034.7567 14.08660928407680
Source of the keplerian elements: AFSPC